Upington, South Africa

9:20 AM SAST on December 03, 2016 (GMT +0200)
Upington

Weather History for FAUP - February, 2013

Change the Weather History Date:

Tuesday, February 12, 2013

  Actual Average Record
Temperature  
Mean Temperature 82 °F -  
Max Temperature 104 °F 94 °F 104 °F (1998)
Min Temperature 61 °F 66 °F 53 °F (2012)
Cooling Degree Days 18    
Growing Degree Days 32 (Base 50)    
Moisture  
Dew Point 36 °F    
Average Humidity 19    
Maximum Humidity 48    
Minimum Humidity 4    
Precipitation  
Precipitation 0.00 in - - ()
Sea Level Pressure  
Sea Level Pressure 29.90 in    
Wind  
Wind Speed 4 mph ()    
Max Wind Speed 10 mph    
Max Gust Speed 23 mph    
Visibility 6.6 miles    
Events      
Averages and records for this station are not official NWS values.
T = Trace of Precipitation, MM = Missing Value Source: Averaged Metar Reports

Daily Weather History Graph

Daily Weather History Graph

Search for Another Location

Airport or City:

Trip Planner

Search our weather history database for the weather conditions in past years. The results will help you decide how hot, cold, wet, or windy it might be!

Date:

Astronomy

Feb. 12, 2013 Rise Set
Actual Time 6:15 AM SAST 7:22 PM SAST
Civil Twilight 5:50 AM SAST 7:47 PM SAST
Nautical Twilight 5:21 AM SAST 8:16 PM SAST
Astronomical Twilight 4:51 AM SAST 8:46 PM SAST
Moon 8:17 AM SAST (2/12) 8:35 PM SAST (2/12)
Length of Visible Light 13h 57m
Length of Day
13h 07m
Waxing Crescent, 6% of the Moon is Illuminated
Feb 12
Waxing Crescent
Feb 17
First Quarter
Feb 25
Full
Mar 4
Last Quarter
Mar 11
New

Hourly Weather History & Observations

Time (SAST) Temp. Dew Point Humidity Pressure Visibility Wind Dir Wind Speed Gust Speed Precip Events Conditions
12:00 AM 73.4 °F 35.6 °F 25% 29.92 in - Calm Calm - N/A   Unknown
1:00 AM 71.6 °F 35.6 °F 27% 29.92 in - NNW 1.2 mph - N/A   Clear
2:00 AM 70 °F 36 °F 18%  in 25 mi WNW 3.5 mph - -  
2:00 AM 69.8 °F 35.6 °F 28% 29.92 in - WNW 3.5 mph - N/A   Clear
3:00 AM 68.0 °F 37.4 °F 33% 29.92 in - SW 3.5 mph - N/A   Clear
4:00 AM 66.2 °F 39.2 °F 37% 29.92 in - SW 5.8 mph - N/A   Clear
5:00 AM 64 °F 41 °F 31%  in 25 mi East 3.5 mph - -  
5:00 AM 62.6 °F 39.2 °F 42% 29.92 in - East 2.3 mph - N/A   Clear
6:00 AM 62.6 °F 42.8 °F 48% 29.92 in - Calm Calm - N/A   Clear
7:00 AM 68.0 °F 42.8 °F 40% 29.95 in - NNE 3.5 mph - N/A   Clear
7:21 AM 73.4 °F 39.2 °F 29% 29.95 in - ENE 2.3 mph - N/A   Clear
7:45 AM 77.0 °F 39.2 °F 26% 29.95 in - ENE 3.5 mph - N/A   Clear
8:00 AM 78 °F 42 °F 17%  in 25 mi ENE 3.5 mph - -  
8:00 AM 77.0 °F 41.0 °F 28% 29.95 in - ENE 3.5 mph - N/A   Clear
8:29 AM 80.6 °F 42.8 °F 26% 29.95 in - SE 1.2 mph - N/A   Clear
9:00 AM 82.4 °F 39.2 °F 21% 29.95 in - East 6.9 mph - N/A   Clear
9:23 AM 86.0 °F 37.4 °F 18% 29.95 in - East 3.5 mph - N/A   Clear
9:50 AM 89.6 °F 42.8 °F 20% 29.95 in - NNE 8.1 mph - N/A   Clear
10:00 AM 89.6 °F 42.8 °F 20% 29.92 in - NNE 8.1 mph - N/A   Clear
10:31 AM 93.2 °F 44.6 °F 19% 29.92 in - NE 3.5 mph - N/A   Clear
11:00 AM 94 °F 45 °F 10%  in 25 mi North 8.1 mph - -   Scattered Clouds
11:00 AM 93.2 °F 44.6 °F 19% 29.92 in 6.2 mi North 6.9 mph - N/A   Partly Cloudy
11:48 AM 96.8 °F 39.2 °F 14% 29.92 in 6.2 mi West 6.9 mph - N/A   Partly Cloudy
12:00 PM 95.0 °F 39.2 °F 14% 29.89 in 6.2 mi West 6.9 mph - N/A   Partly Cloudy
12:30 PM 98.6 °F 35.6 °F 11% 29.89 in 6.2 mi North 9.2 mph 23.0 mph N/A   Partly Cloudy
1:00 PM 98.6 °F 35.6 °F 11% 29.86 in 6.2 mi NW 9.2 mph - N/A   Partly Cloudy
2:00 PM 99 °F 34 °F 5%  in 25 mi WNW 9.2 mph - -   Scattered Clouds
2:00 PM 98.6 °F 32.0 °F 10% 29.86 in 6.2 mi WNW 8.1 mph - N/A   Partly Cloudy
2:29 PM 102.2 °F 33.8 °F 9% 29.86 in 6.2 mi WNW 8.1 mph - N/A   Partly Cloudy
3:00 PM 100.4 °F 32.0 °F 9% 29.83 in 6.2 mi WSW 8.1 mph - N/A   Partly Cloudy
4:00 PM 98.6 °F 30.2 °F 9% 29.80 in 6.2 mi West 4.6 mph - N/A   Partly Cloudy
5:00 PM 102 °F 28 °F 4%  in 12 mi West 9.2 mph - -   Scattered Clouds
5:00 PM 100.4 °F 28.4 °F 8% 29.80 in 6.2 mi West 9.2 mph - N/A   Partly Cloudy
6:00 PM 100.4 °F 26.6 °F 7% 29.80 in 6.2 mi WSW 10.4 mph - N/A   Partly Cloudy
7:00 PM 96.8 °F 32.0 °F 10% 29.80 in 6.2 mi SSW 9.2 mph - N/A   Partly Cloudy
8:00 PM 91 °F 30 °F 5%  in 25 mi SSW 8.1 mph - -   Scattered Clouds
8:00 PM 89.6 °F 30.2 °F 12% 29.83 in 6.2 mi SSW 8.1 mph - N/A   Partly Cloudy
9:00 PM 84.2 °F 30.2 °F 14% 29.86 in - SW 4.6 mph - N/A   Unknown
10:00 PM 80.6 °F 24.8 °F 13% 29.86 in - WSW 5.8 mph - N/A   Unknown
11:00 PM 79 °F 23 °F 6%  in - WSW 8.1 mph - -  
11:00 PM 78.8 °F 23.0 °F 13% 29.89 in - WSW 8.1 mph - N/A   Unknown